This demonstration page uses our WeatherBlox Daily Observations layout. Learn more.

38.88101, -77.10428

Hourly Observations for August 27, 2016

Temp ( °F °C ) Dew Point ( °F °C ) Humidity (%) Winds ( mph kmh ) Pressure ( in mb ) Visibility ( mi km ) Precip ( " mm )
12:52 am 00:52 Mostly Cloudy 82 27.8 74 23.3 77 77 N 6 9 30.09 1019 10 16.09344 0 0
1:52 am 01:52 Mostly Cloudy 82 27.8 74 23.3 77 77 NE 6 9 30.09 1019 10 16.09344 0 0
2:52 am 02:52 Mostly Cloudy 81 27.2 74 23.3 79 79 NE 7 11 30.09 1019 10 16.09344 0 0
3:52 am 03:52 Mostly Cloudy 81 27.2 74 23.3 79 79 NE 5 7 30.09 1019 10 16.09344 0 0
4:52 am 04:52 Partly Cloudy 80 26.7 73 22.8 79 79 NE 6 9 30.12 1020 10 16.09344 0 0
5:52 am 05:52 Mostly Clear 80 26.7 70 21.1 71 71 NNE 6 9 30.12 1020 10 16.09344 0 0
6:25 am 06:25 Partly Cloudy 79 26.1 70 21.1 74 74 ENE 3 6 30.15 1021 10 16.09344 0 0
6:52 am 06:52 Partly Cloudy 79 26.1 71 21.7 77 77 NNE 5 7 30.15 1021 10 16.09344 0 0
7:52 am 07:52 Partly Cloudy 81 27.2 70 21.1 69 69 NNE 6 9 30.18 1022 10 16.09344 0 0
8:52 am 08:52 Partly Cloudy 82 27.8 70 21.1 67 67 NE 9 15 30.18 1022 10 16.09344 0 0
9:52 am 09:52 Partly Cloudy 85 29.4 68 20 57 57 ENE 9 15 30.18 1022 10 16.09344 0 0
10:52 am 10:52 Partly Cloudy 87 30.6 67 19.4 51 51 E 15 24 30.18 1022 10 16.09344 0 0
11:52 am 11:52 Partly Cloudy 89 31.7 66 18.9 47 47 E 10 17 30.18 1022 10 16.09344 0 0
12:52 pm 12:52 Partly Cloudy 89 31.7 66 18.9 47 47 SE 8 13 30.18 1022 10 16.09344 0 0
1:52 pm 13:52 Partly Cloudy 91 32.8 66 18.9 44 44 N 3 6 30.18 1022 10 16.09344 0 0
2:52 pm 14:52 Partly Cloudy 91 32.8 66 18.9 44 44 E 12 19 30.15 1021 10 16.09344 0 0
3:52 pm 15:52 Partly Cloudy 92 33.3 66 18.9 43 43 ENE 7 11 30.15 1021 10 16.09344 0 0
4:52 pm 16:52 Partly Cloudy 91 32.8 65 18.3 42 42 E 8 13 30.12 1020 10 16.09344 0 0
5:52 pm 17:52 Partly Cloudy 89 31.7 65 18.3 45 45 SSE 6 9 30.12 1020 10 16.09344 0 0
6:52 pm 18:52 Partly Cloudy 88 31.1 66 18.9 48 48 E 8 13 30.12 1020 10 16.09344 0 0
7:52 pm 19:52 Partly Cloudy 85 29.4 66 18.9 53 53 E 8 13 30.15 1021 10 16.09344 0 0
8:52 pm 20:52 Mostly Clear 83 28.3 67 19.4 59 59 E 7 11 30.18 1022 10 16.09344 0 0
9:52 pm 21:52 Clear 82 27.8 67 19.4 60 60 E 5 7 30.18 1022 10 16.09344 0 0
10:52 pm 22:52 Clear 81 27.2 68 20 65 65 E 3 6 30.21 1023 10 16.09344 0 0
11:52 pm 23:52 Clear 81 27 66 19 62 62 ESE 7 11 30.21 1023 10 16.09344 0 0

Powered by AerisWeather